Etusivu
METAR-TAF:

METAR-TAF

Lentoasemat :

La Grande/Union County Airport

La Grande, Oregon, Yhdysvallat

Leveyspiiri: 45-17N, Pituuspiiri: 118-00W, korkeus merenpinnasta: 827 m

Tämänhetkinen sää

Tämä raportti tehtiin 25 minuuttia sitten, kello 02.56 UTC
Tuuli 12 kn lännestä/luoteesta
Lämpötila 15°C
Kosteus 39%
Ilmanpaine 1015 hPa
Näkyvyys: 16.1 km
selkeää

METAR: KLGD 100256Z AUTO 29012KT 10SM CLR 15/01 A2996 RMK AO2 SLP144 T01500011 55002

Aika: 20:21 (03:21 UTC)


TAF: puuttuu

Säähavainnot ja -ennusteet yli 4000 lentoasemalta (METAR- ja TAF-raportit).

Käytössä olevat sääasemat on merkitty karttaan keltaisilla ja punaisilla pisteillä.

Aseta hiiri pisteen päälle nähdäksesi sääaseman nimen.

Klikkaa sitten nähdäksesi säähavainnot ja -ennusteet.

Kartan vaihtaminen: klikkaa mustalla rastilla varustettuja vihreitä pisteitä, niin voit zoomata sisään; viivalla varustettua vihreää pistettä, niin voit zoomata ulos tai vihreitä nuolia, niin pääset viereisille kartoille.


METAR-TAF: